GW0378 Weather Reports


Display with metric or nautical units.
time (UTC)temp
F
wind
direction
speed
MPH
gust
MPH
rain 1hr
in
rain 24hr
in
rain mn
in
humidity
%
barometer
mb
20260904195854 63 290 2.0 5.0 0.00 0.12 0.12 58 1015.1
20260904195352 63 255 3.0 6.0 0.00 0.12 0.12 62 1015.2
20260904194847 63 261 0.0 5.0 0.00 0.12 0.12 58 1015.0
20260904194346 62 254 1.0 5.0 0.00 0.12 0.12 62 1014.8
20260904193841 61 319 4.0 9.0 0.00 0.12 0.12 60 1014.9
20260904193337 62 337 5.0 6.0 0.00 0.12 0.12 61 1015.1
20260904192832 62 6 3.0 6.0 0.00 0.12 0.12 65 1015.1
20260904192327 63 73 7.0 7.0 0.00 0.12 0.12 63 1015.1
20260904191824 62 297 0.0 6.0 0.00 0.12 0.12 61 1015.1
20260904191320 61 140 0.0 5.0 0.00 0.12 0.12 62 1015.4
20260904190817 60 327 2.0 5.0 0.00 0.12 0.12 65 1015.4
20260904190312 62 210 0.0 6.0 0.00 0.12 0.12 62 1015.2
20260904185808 61 294 3.0 4.0 0.00 0.12 0.12 66 1015.5
20260904185306 60 349 2.0 4.0 0.00 0.12 0.12 65 1015.5
20260904184803 59 334 2.0 2.0 0.00 0.12 0.12 67 1015.4
20260904184258 59 348 4.0 4.0 0.00 0.12 0.12 70 1015.6
20260904183753 59 74 1.0 3.0 0.00 0.12 0.12 69 1015.4
20260904183248 59 8 2.0 6.0 0.00 0.12 0.12 68 1015.6
20260904182743 59 0 4.0 5.0 0.00 0.12 0.12 67 1015.4
20260904182238 60 266 3.0 4.0 0.00 0.12 0.12 66 1015.2
20260904181734 61 305 3.0 5.0 0.00 0.12 0.12 67 1015.5
20260904181233 60 54 0.0 4.0 0.00 0.12 0.12 66 1015.4
20260904180729 59 300 2.0 4.0 0.00 0.12 0.12 68 1015.4
20260904180224 58 270 2.0 3.0 0.00 0.12 0.12 70 1015.7
20260904175723 58 315 2.0 5.0 0.00 0.12 0.12 69 1015.5
20260904175222 57 0 1.0 3.0 0.00 0.12 0.12 70 1015.5
20260904174717 57 281 2.0 4.0 0.00 0.12 0.12 74 1015.7
20260904174213 57 264 2.0 4.0 0.00 0.12 0.12 75 1015.5
20260904173708 58 329 4.0 5.0 0.00 0.12 0.12 74 1015.5
20260904173203 57 285 2.0 3.0 0.00 0.12 0.12 75 1015.5
20260904172700 57 15 2.0 4.0 0.00 0.12 0.12 77 1015.6
20260904172159 57 279 3.0 5.0 0.00 0.12 0.12 77 1015.5
20260904171655 56 254 0.0 4.0 0.00 0.12 0.12 80 1015.7
20260904171154 56 198 0.0 2.0 0.00 0.12 0.12 79 1015.2
20260904170651 56 3 3.0 3.0 0.00 0.12 0.12 79 1015.5
20260904170147 56 154 1.0 2.0 0.00 0.12 0.12 83 1015.4
20260904165645 55 45 3.0 3.0 0.00 0.12 0.12 84 1015.4
20260904165144 55 258 1.0 3.0 0.00 0.12 0.12 82 1015.5
20260904164640 54 90 0.0 3.0 0.00 0.12 0.12 84 1015.2
20260904164135 55 282 3.0 4.0 0.00 0.12 0.12 83 1015.2
20260904163631 54 45 0.0 4.0 0.00 0.12 0.12 85 1015.0
20260904163126 55 60 1.0 4.0 0.00 0.12 0.12 85 1014.9
20260904162625 53 127 0.0 3.0 0.00 0.12 0.12 88 1014.9
20260904162120 53 29 0.0 3.0 0.00 0.12 0.12 89 1014.9
20260904161616 53 8 0.0 2.0 0.00 0.12 0.12 90 1014.9
20260904161111 52 36 2.0 3.0 0.00 0.12 0.12 90 1014.7
20260904160606 51 26 2.0 2.0 0.00 0.12 0.12 89 1014.9
20260904155602 51 15 2.0 3.0 0.00 0.12 0.12 91 1014.8
20260904155056 51 63 2.0 2.0 0.00 0.12 0.12 91 1014.7
20260904154550 51 24 2.0 3.0 0.00 0.12 0.12 92 1014.8
20260904154045 51 99 2.0 3.0 0.00 0.12 0.12 92 1014.8
20260904153544 50 203 0.0 1.0 0.00 0.12 0.12 92 1014.7
20260904153041 50 206 0.0 3.0 0.00 0.12 0.12 93 1014.8
20260904152536 50 246 0.0 2.0 0.00 0.12 0.12 93 1014.4
20260904152031 50 331 0.0 5.0 0.00 0.12 0.12 93 1014.2
20260904151521 50 322 0.0 4.0 0.00 0.12 0.12 95 1014.2
20260904151021 50 286 3.0 4.0 0.00 0.12 0.12 95 1014.5
20260904150520 50 281 6.0 6.0 0.00 0.12 0.12 96 1014.2
20260904150015 50 298 3.0 4.0 0.00 0.12 0.12 96 1014.4
20260904145509 50 260 0.0 4.0 0.00 0.12 0.12 96 1014.2
20260904145005 50 244 3.0 5.0 0.00 0.12 0.12 96 1014.2
20260904144501 50 210 2.0 4.0 0.00 0.12 0.12 96 1013.9
20260904143956 50 180 0.0 2.0 0.00 0.12 0.12 96 1013.8
20260904143452 50 180 0.0 2.0 0.00 0.12 0.12 96 1013.5
20260904142949 50 166 0.0 1.0 0.00 0.12 0.12 96 1013.5
20260904142445 50 221 0.0 3.0 0.00 0.12 0.12 96 1013.2
20260904141944 50 73 2.0 3.0 0.00 0.12 0.12 96 1013.5
20260904141439 50 332 2.0 3.0 0.00 0.12 0.12 96 1013.5
20260904140936 49 15 0.0 0.0 0.00 0.12 0.12 96 1013.5
20260904140435 49 66 0.0 2.0 0.00 0.12 0.12 96 1013.1
20260904135935 49 90 1.0 3.0 0.00 0.12 0.12 95 1013.1
20260904135434 49 56 2.0 3.0 0.00 0.12 0.12 95 1012.9
20260904134931 49 8 0.0 2.0 0.00 0.12 0.12 95 1013.1
20260904134430 49 98 1.0 2.0 0.02 0.12 0.12 95 1013.2
20260904133925 49 101 3.0 4.0 0.02 0.12 0.12 95 1013.1
20260904133420 49 90 2.0 2.0 0.09 0.11 0.11 94 1013.1
20260904132916 49 98 2.0 3.0 0.12 0.11 0.11 94 1013.0
20260904132410 49 90 1.0 2.0 0.12 0.10 0.10 94 1013.0
20260904131910 50 114 1.0 2.0 0.12 0.09 0.09 93 1013.1
20260904131400 49 85 2.0 2.0 0.12 0.08 0.08 93 1012.9
20260904130855 50 90 2.0 2.0 0.17 0.07 0.07 92 1013.0
20260904130354 50 23 0.0 2.0 0.17 0.06 0.06 92 1012.9
20260904125849 50 183 0.0 4.0 0.14 0.04 0.04 92 1012.8
20260904125346 50 270 0.0 2.0 0.09 0.03 0.03 91 1012.9
20260904124844 50 260 2.0 3.0 0.02 0.02 0.02 90 1012.9
20260904124342 50 243 3.0 3.0 0.00 0.02 0.02 90 1012.7
20260904123836 50 168 2.0 3.0 0.00 0.02 0.02 90 1012.8
20260904123331 50 114 0.0 2.0 0.00 0.02 0.02 90 1012.7
20260904122826 50 240 0.0 3.0 0.00 0.02 0.02 90 1012.9
20260904122321 50 324 0.0 2.0 0.00 0.02 0.02 90 1012.6
20260904121816 50 165 0.0 1.0 0.00 0.02 0.02 90 1012.5
20260904121312 51 180 2.0 3.0 0.02 0.02 0.02 89 1012.6
20260904120809 51 305 2.0 4.0 0.02 0.02 0.02 89 1012.4
20260904120303 51 60 0.0 3.0 0.00 0.01 0.01 88 1012.3
20260904115759 51 331 0.0 3.0 0.00 0.01 0.01 88 1012.5
20260904115254 51 306 4.0 4.0 0.00 0.01 0.01 87 1012.1
20260904114748 51 240 0.0 3.0 0.00 0.01 0.01 88 1012.1
20260904114248 51 243 1.0 3.0 0.00 0.01 0.01 89 1012.3
20260904113743 51 198 3.0 3.0 0.00 0.01 0.01 89 1012.0
20260904113242 51 90 0.0 3.0 0.00 0.01 0.01 88 1012.0
20260904112737 51 186 0.0 2.0 0.00 0.01 0.01 87 1011.9
20260904112233 51 85 2.0 3.0 0.00 0.01 0.01 87 1011.5
20260904111729 51 82 3.0 4.0 0.00 0.01 0.01 88 1011.7
20260904111224 51 94 2.0 2.0 0.00 0.01 0.01 87 1011.7
20260904110720 52 7 0.0 3.0 0.00 0.01 0.01 85 1011.6
20260904110219 51 274 5.0 10.0 0.00 0.01 0.01 86 1011.4
20260904105714 51 20 0.0 3.0 0.00 0.01 0.01 91 1011.6
20260904105209 51 72 2.0 3.0 0.00 0.01 0.01 90 1011.6
20260904104704 51 105 3.0 3.0 0.00 0.01 0.01 89 1011.3
20260904104200 51 57 1.0 2.0 0.02 0.01 0.01 89 1011.3
20260904103656 51 69 1.0 1.0 0.02 0.01 0.01 90 1011.1
20260904103151 51 90 1.0 2.0 0.02 0.01 0.01 90 1011.0
20260904102647 50 139 2.0 2.0 0.02 0.01 0.01 90 1010.8
20260904102142 51 21 2.0 5.0 0.02 0.00 0.00 89 1010.7
20260904101639 51 139 2.0 3.0 0.02 0.00 0.00 87 1010.4
20260904101134 51 115 2.0 3.0 0.00 0.00 0.00 86 1010.4
20260904100630 51 335 3.0 5.0 0.00 0.00 0.00 87 1010.5
20260904100125 50 6 0.0 2.0 0.00 0.00 0.00 88 1010.9
20260904095619 50 107 3.0 3.0 0.00 0.00 0.00 88 1010.4
20260904095114 50 109 1.0 1.0 0.00 0.00 0.00 88 1009.7
20260904094609 50 82 0.0 2.0 0.00 0.00 0.00 87 1009.4
20260904094104 50 110 2.0 3.0 0.00 0.00 0.00 87 1009.0
20260904093601 50 94 3.0 3.0 0.00 0.00 0.00 87 1009.1
20260904093101 50 72 2.0 3.0 0.00 0.00 0.00 88 1008.7
20260904092557 50 74 1.0 2.0 0.00 0.00 0.00 88 1008.7
20260904092053 50 82 2.0 3.0 0.00 0.00 0.00 88 1008.5
20260904091549 50 154 0.0 2.0 0.00 0.00 0.00 88 1008.6
20260904091048 50 99 2.0 2.0 0.00 0.00 0.00 87 1008.1
20260904090544 50 81 2.0 3.0 0.00 0.00 0.00 86 1007.9
20260904090039 50 90 2.0 3.0 0.00 0.00 0.00 86 1007.8
20260904085534 50 90 2.0 2.0 0.00 0.00 0.00 86 1007.9
20260904085034 50 98 1.0 3.0 0.00 0.00 0.00 87 1007.7
20260904084530 50 90 2.0 3.0 0.00 0.00 0.00 87 1008.1
20260904084026 50 90 2.0 3.0 0.00 0.00 0.00 87 1007.9
20260904083522 50 105 1.0 3.0 0.00 0.00 0.00 87 1007.7
20260904083017 50 100 2.0 2.0 0.00 0.00 0.00 87 1007.8
20260904082512 50 90 2.0 3.0 0.00 0.00 0.00 86 1007.8
20260904082007 50 105 2.0 3.0 0.00 0.00 0.00 86 1007.4
20260904081503 50 85 2.0 2.0 0.00 0.00 0.00 86 1007.6
20260904080958 50 106 1.0 1.0 0.00 0.00 0.00 86 1007.9
20260904080453 50 102 1.0 2.0 0.00 0.00 0.00 86 1007.8
20260904075949 50 84 2.0 2.0 0.00 0.00 0.00 86 1007.7
20260904075445 50 86 2.0 3.0 0.00 0.00 0.00 85 1007.7
20260904074944 50 111 0.0 3.0 0.00 0.00 0.00 85 1007.8
20260904074439 50 100 3.0 6.0 0.00 0.00 0.00 85 1007.8
20260904073934 50 115 2.0 7.0 0.00 0.00 0.00 86 1007.8
20260904073430 49 106 4.0 7.0 0.00 0.00 0.00 87 1007.7
20260904072925 49 90 3.0 4.0 0.00 0.00 0.00 88 1007.9
20260904072420 49 108 3.0 4.0 0.00 0.00 0.00 88 1007.9
20260904071916 49 104 3.0 4.0 0.00 0.00 0.00 87 1008.0
20260904071411 50 87 3.0 5.0 0.00 0.00 0.00 87 1008.1
20260904070906 50 112 3.0 5.0 0.00 0.00 0.00 86 1008.0
20260904070404 50 103 3.0 4.0 0.00 0.00 0.00 86 1007.9
20260904065905 50 93 4.0 6.0 0.00 0.00 0.00 87 1007.9
20260904065401 49 98 3.0 6.0 0.00 0.00 0.00 88 1007.8
20260904064900 49 111 1.0 3.0 0.00 0.00 0.00 87 1007.9
20260904064357 50 109 3.0 3.0 0.00 0.00 0.00 87 1008.1
20260904063852 50 87 3.0 4.0 0.00 0.00 0.00 87 1007.9
20260904063349 50 113 2.0 4.0 0.00 0.00 0.00 87 1007.7
20260904062843 50 94 2.0 3.0 0.00 0.00 0.00 87 1007.8
20260904062340 50 108 3.0 4.0 0.00 0.00 0.00 86 1007.8
20260904061835 51 85 4.0 5.0 0.00 0.00 0.00 86 1007.7
20260904061331 51 101 2.0 2.0 0.00 0.00 0.00 87 1007.9
20260904060827 51 101 2.0 3.0 0.00 0.00 0.00 87 1008.4
20260904060323 51 126 0.0 2.0 0.00 0.00 0.00 85 1007.8
20260904055818 51 103 4.0 4.0 0.00 0.08 0.08 86 1008.1
20260904055313 51 75 2.0 3.0 0.00 0.08 0.08 85 1008.0
20260904054803 51 95 2.0 3.0 0.00 0.08 0.08 85 1008.5
20260904054259 52 90 2.0 2.0 0.00 0.08 0.08 84 1008.3
20260904053754 52 86 3.0 3.0 0.00 0.08 0.08 83 1008.1
20260904053253 51 116 4.0 4.0 0.00 0.08 0.08 86 1008.5
20260904052750 51 98 2.0 2.0 0.00 0.08 0.08 86 1008.5
20260904052246 52 98 2.0 3.0 0.00 0.08 0.08 86 1008.7
20260904051742 52 103 2.0 3.0 0.00 0.08 0.08 85 1008.5
20260904051237 53 107 2.0 2.0 0.00 0.08 0.08 84 1008.6
20260904050732 53 90 0.0 0.0 0.00 0.08 0.08 84 1008.7
20260904050228 53 66 1.0 1.0 0.00 0.08 0.08 84 1008.6
20260904045723 53 90 2.0 2.0 0.00 0.08 0.08 82 1008.6
20260904045218 54 74 2.0 3.0 0.00 0.08 0.08 82 1009.1
20260904044713 54 114 0.0 1.0 0.00 0.08 0.08 81 1009.0
20260904044209 54 194 0.0 1.0 0.00 0.08 0.08 81 1009.4
20260904043705 54 65 2.0 3.0 0.00 0.08 0.08 80 1008.9
20260904043201 54 90 1.0 3.0 0.00 0.08 0.08 80 1009.3
20260904042657 54 161 2.0 3.0 0.00 0.08 0.08 80 1009.7
20260904042153 54 54 1.0 2.0 0.00 0.08 0.08 81 1009.6
20260904041647 54 198 1.0 3.0 0.00 0.08 0.08 80 1009.6
20260904041143 54 140 0.0 3.0 0.00 0.08 0.08 78 1009.7
20260904040639 55 240 0.0 3.0 0.00 0.08 0.08 76 1009.4
20260904040135 54 116 4.0 5.0 0.00 0.08 0.08 76 1009.4
20260904035630 54 106 3.0 4.0 0.00 0.08 0.08 77 1009.5
20260904035125 54 137 5.0 8.0 0.00 0.08 0.08 77 1009.3
20260904034624 54 92 4.0 7.0 0.00 0.08 0.08 77 1009.6
20260904034120 54 62 6.0 8.0 0.00 0.08 0.08 76 1009.7
20260904033615 55 105 4.0 10.0 0.00 0.08 0.08 76 1009.7
20260904033113 54 115 5.0 10.0 0.00 0.08 0.08 76 1009.5
20260904032608 55 134 4.0 9.0 0.00 0.08 0.08 76 1009.7
20260904032107 55 100 4.0 8.0 0.00 0.08 0.08 75 1009.9
20260904031606 55 114 7.0 8.0 0.00 0.08 0.08 75 1010.0
20260904031103 55 116 8.0 9.0 0.00 0.08 0.08 75 1010.1
20260904030558 54 107 5.0 9.0 0.00 0.08 0.08 78 1009.8
20260904030053 54 98 3.0 9.0 0.00 0.08 0.08 80 1010.0
20260904025549 54 111 6.0 9.0 0.00 0.08 0.08 79 1010.3
20260904025044 54 101 3.0 8.0 0.00 0.08 0.08 79 1010.4
20260904024539 55 112 7.0 10.0 0.00 0.08 0.08 78 1010.1
20260904024035 56 120 3.0 7.0 0.00 0.08 0.08 77 1010.0
20260904023531 56 118 8.0 8.0 0.00 0.08 0.08 76 1009.7
20260904023026 56 124 4.0 6.0 0.00 0.08 0.08 76 1010.0
20260904022521 56 128 4.0 8.0 0.00 0.08 0.08 76 1010.3
20260904022018 56 110 3.0 5.0 0.00 0.08 0.08 77 1010.4
20260904021513 57 102 3.0 4.0 0.00 0.08 0.08 76 1010.3
20260904021009 56 108 3.0 3.0 0.00 0.08 0.08 77 1010.8
20260904020503 57 85 2.0 3.0 0.00 0.08 0.08 78 1010.6
20260904020003 57 90 1.0 2.0 0.00 0.08 0.08 76 1010.4
20260904015458 57 105 2.0 3.0 0.00 0.08 0.08 76 1010.5
20260904014956 58 110 2.0 3.0 0.00 0.08 0.08 75 1010.8
20260904014451 58 95 2.0 3.0 0.00 0.08 0.08 73 1010.7
20260904013947 58 111 3.0 3.0 0.00 0.08 0.08 74 1010.8
20260904013443 59 113 3.0 3.0 0.00 0.08 0.08 71 1010.7
20260904012939 60 79 3.0 3.0 0.00 0.08 0.08 66 1010.8
20260904012438 61 52 2.0 2.0 0.00 0.08 0.08 69 1010.7
20260904011933 61 90 0.0 2.0 0.00 0.08 0.08 68 1010.9
20260904011427 60 117 2.0 2.0 0.00 0.08 0.08 72 1010.9
20260904010923 61 90 0.0 2.0 0.00 0.08 0.08 69 1010.9
20260904010420 62 66 2.0 2.0 0.00 0.08 0.08 67 1011.1
20260904005914 62 114 4.0 4.0 0.00 0.08 0.08 64 1010.9
20260904005410 63 26 1.0 2.0 0.00 0.08 0.08 65 1011.1
20260904004904 63 20 0.0 2.0 0.00 0.08 0.08 69 1011.4
20260904004401 62 32 0.0 2.0 0.00 0.08 0.08 69 1011.5
20260904003901 61 151 0.0 2.0 0.00 0.08 0.08 72 1011.1
20260904003356 61 23 0.0 3.0 0.00 0.08 0.08 73 1011.4
20260904002851 61 23 2.0 4.0 0.00 0.08 0.08 71 1011.3
20260904002348 62 121 3.0 3.0 0.00 0.08 0.08 72 1011.5
20260904001847 62 108 0.0 2.0 0.00 0.08 0.08 71 1011.4
20260904001343 62 57 0.0 3.0 0.00 0.08 0.08 73 1011.6
20260904000837 62 60 0.0 3.0 0.00 0.08 0.08 73 1011.5
20260904000336 62 48 2.0 2.0 0.00 0.08 0.08 73 1011.6
20260903235831 61 98 1.0 4.0 0.00 0.08 0.08 75 1011.5
20260903235327 61 69 0.0 2.0 0.00 0.08 0.08 69 1011.7
20260903234826 62 15 1.0 2.0 0.00 0.08 0.08 71 1011.9
20260903234323 61 90 3.0 3.0 0.00 0.08 0.08 76 1011.9
20260903233819 60 107 2.0 3.0 0.00 0.08 0.08 75 1011.9
20260903233315 60 192 1.0 2.0 0.00 0.08 0.08 84 1012.1
20260903232814 59 103 0.0 3.0 0.00 0.08 0.08 86 1011.9
20260903232310 59 90 3.0 4.0 0.02 0.08 0.08 84 1012.0
20260903231809 59 174 1.0 2.0 0.07 0.08 0.08 83 1012.4
20260903231304 60 107 2.0 2.0 0.07 0.08 0.08 81 1012.6
20260903230759 59 293 3.0 4.0 0.02 0.07 0.07 78 1012.5
20260903230254 60 255 5.0 6.0 0.00 0.07 0.07 77 1012.4
20260903225750 60 279 4.0 6.0 0.00 0.07 0.07 75 1012.4
20260903225246 60 279 2.0 4.0 0.00 0.07 0.07 72 1012.3
20260903224742 61 285 5.0 7.0 0.00 0.07 0.07 72 1011.9
20260903224238 61 270 3.0 9.0 0.00 0.07 0.07 73 1012.0
20260903223733 62 324 2.0 5.0 0.00 0.07 0.07 72 1012.0
20260903223232 62 355 2.0 4.0 0.00 0.07 0.07 73 1012.0
20260903222727 61 180 0.0 3.0 0.02 0.07 0.07 75 1012.0
20260903222226 61 165 1.0 3.0 0.02 0.07 0.07 78 1012.3
20260903221721 61 190 0.0 2.0 0.02 0.06 0.06 78 1012.1
20260903221220 61 188 0.0 4.0 0.02 0.06 0.06 75 1011.9
20260903220718 61 294 3.0 3.0 0.00 0.06 0.06 75 1012.0
20260903220213 61 286 3.0 6.0 0.00 0.06 0.06 73 1012.0
20260903215712 61 247 5.0 7.0 0.00 0.06 0.06 73 1012.0
20260903215208 62 270 0.0 3.0 0.00 0.06 0.06 76 1012.1
20260903214706 62 323 2.0 4.0 0.00 0.06 0.06 76 1012.0
20260903214202 62 285 1.0 2.0 0.00 0.06 0.06 75 1011.8
20260903213656 62 6 0.0 3.0 0.00 0.06 0.06 73 1012.0
20260903213152 61 233 2.0 5.0 0.00 0.06 0.06 74 1011.7
20260903212648 62 7 1.0 3.0 0.00 0.06 0.06 74 1012.3
20260903212144 63 90 0.0 4.0 0.07 0.06 0.06 81 1012.0
20260903211638 61 154 0.0 2.0 0.14 0.06 0.06 79 1011.7
20260903211135 60 285 1.0 3.0 0.09 0.05 0.05 77 1012.0
20260903210630 61 321 3.0 3.0 0.05 0.04 0.04 69 1011.9
20260903210125 62 194 2.0 2.0 0.02 0.03 0.03 67 1012.1
20260903205619 62 199 2.0 3.0 0.00 0.03 0.03 63 1011.9
20260903205119 62 228 2.0 4.0 0.00 0.03 0.03 61 1011.9
20260903204614 63 289 1.0 4.0 0.00 0.03 0.03 60 1011.8
20260903204110 63 267 3.0 5.0 0.00 0.03 0.03 61 1012.1
20260903203606 63 314 4.0 4.0 0.00 0.03 0.03 63 1011.9
20260903203106 64 0 2.0 6.0 0.00 0.03 0.03 66 1011.9
20260903202556 64 288 9.0 9.0 0.00 0.03 0.03 63 1012.0
20260903202051 65 321 5.0 7.0 0.00 0.03 0.03 62 1011.8
20260903201545 65 261 0.0 7.0 0.00 0.03 0.03 58 1011.8
20260903201044 65 53 0.0 5.0 0.00 0.03 0.03 67 1011.7
20260903200539 64 212 5.0 7.0 0.00 0.03 0.03 66 1011.7
20260903200034 63 106 0.0 2.0 0.00 0.03 0.03 68 1011.8